Regional Weather Roundup
Issued by NWS Green Bay, WI

Home | Current Version | Previous Version | Text Only | Print | Product List | Glossary On
Versions: 1 2 3 4 5 6 7 8 9 10 11 12 13 14 15 16 17 18 19 20 21 22 23 24 25 26 27 28 29 30 31 32 33 34 35 36 37 38 39 40 41 42 43 44 45 46 47 48 49 50
000
ASUS43 KGRB 271200
RWRGRB

NORTH-CENTRAL AND NORTHEAST WISCONSIN REGIONAL WEATHER ROUNDUP
NATIONAL WEATHER SERVICE GREEN BAY WI
700 AM CDT WED JUL 27 2016

WIZ005-009-010>012-018-019-271300-
NORTH CENTRAL WISCONSIN

CITY           SKY/WX    TMP DP  RH WIND       PRES   REMARKS
IRONWOOD       CLOUDY    66  66 100 CALM      29.98R
MANITOWISH WTR NOT AVBL
ARBOR VITAE    NOT AVBL
EAGLE RIVER    NOT AVBL
LAND O LAKES   NOT AVBL
RHINELANDER    HVY RAIN  65  62  90 VRB3      30.04R FOG
PHILLIPS       NOT AVBL
ANTIGO         NOT AVBL
TOMAHAWK       NOT AVBL
MERRILL        NOT AVBL
$$

WIZ013-073-271300-
NORTHEAST WISCONSIN

CITY           SKY/WX    TMP DP  RH WIND       PRES   REMARKS
IRON MOUNTAIN  PTSUNNY   65  61  87 CALM      29.98R
MARINETTE      SUNNY    N/A N/A N/A W3        29.98R
$$

WIZ017-030-035>037-045-271300-
CENTRAL WISCONSIN

CITY           SKY/WX    TMP DP  RH WIND       PRES   REMARKS
MEDFORD        NOT AVBL
WAUSAU         MOSUNNY   68  65  90 CALM      30.00S
MOSINEE        SUNNY     66  66 100 CALM      30.02S
MARSHFIELD     SUNNY     69  66  90 W3        30.01S
WISC RAPIDS    SUNNY     70  66  87 CALM      30.01F
STEVENS POINT  NOT AVBL
WAUPACA        NOT AVBL
SHAWANO        NOT AVBL
CLINTONVILLE   NOT AVBL
WAUTOMA        MOSUNNY   67  66  97 CALM      30.02R
$$

WIZ038-039-048-051-271300-
FOX VALLEY

CITY           SKY/WX    TMP DP  RH WIND       PRES   REMARKS
NWS GREEN BAY  MOSUNNY   70  70 100 W3        29.98F
APPLETON       PTSUNNY   72  70  94 CALM      29.99S
OSHKOSH        PTSUNNY   73  67  81 W5        30.00S
FOND DU LAC    SUNNY     70  66  87 SW3       30.01F
$$

WIZ022-050-052-271300-
EAST CENTRAL WISCONSIN

CITY           SKY/WX    TMP DP  RH WIND       PRES   REMARKS
EPHRAIM        NOT AVBL
WASHINGTON ISL NOT AVBL
STURGEON BAY   SUNNY     71  68  90 S3        29.98R
MANITOWOC      NOT AVBL
SHEBOYGAN      SUNNY     73  67  81 W5        30.00S
$$

LMZ563-521-522-541>543-271300-
LAKESHORE

STATION/POSITION TIME  TEMP    WIND        PRES    VSBY  WAVE
                       AIR SEA DIR/SP/G                  HT/PER
                 (UTC) (F)     (DEG/KT/KT) (MB)    (MI)  (FT/S)
SHEBOYGAN LKSHOR 1100   71     330/  5/  6 1015.7R
KEWAUNEE LKSHORE 1100   72     300/  2/  3 1014.6R
ALGOMA MARINA    1143             CALM       N/A
NORTHPORT PIER   1100   71     300/  4/  9 1014.2S
N MID LAKE BUOY  1050   70 69  260/  6/  6 1013.8R         2/ 4
S GREEN BAY BUOY 1100   74 74   80/  6/  8   N/A
SISTER BAY LKSHO 1121   71        CALM       N/A
CHAMBERS ISLAND  1100   70     100/  4/  6 1014.2S
MENOMINEE LKSHOR 1100   70     150/  4/  5 1013.4F
$$




USA.gov is the U.S. government's official web portal to all federal, state and local government web resources and services.